[[{"header":{"parameterUnit":"m.s-1","parameterCategory":1,"la1":30.2991,"la2":30.254,"lo1":-89.0895,"lo2":-89.0444,"dy":0.0017,"dx":0.0017,"nx":28,"ny":28,"refTime":"2024-05-12T03:00:00:Z","depth":0,"parameterNumber":2,"parameterNumberName":"U-component_of_WINDS"},"data":[0,0,0,0,0,0,0,0,0,0,0,0,0,0,0,0,0,0,0,0,0,0,0,0,0,0,0,0,0,0,0,0,0,0,0,0,0,0,0,0,0,0,0,0,0,0,0,0,0,0,0,0,0,0,0,0,0,0,-0.3751,-0.3751,0,-0.3743,-0.3743,-0.3743,-0.375,-0.3751,-0.3751,-0.3751,-0.3745,-0.3745,-0.3744,0,0,0,0,0,0,0,0,0,0,0,0,0,-0.3775,-0.3775,-0.3751,-0.3751,-0.3751,-0.3743,-0.3743,-0.3743,-0.375,-0.3751,-0.3751,-0.3751,-0.3745,-0.3745,-0.3744,0,0,0,0,0,0,0,0,0,0,0,0,0,-0.3766,-0.3775,-0.3751,-0.3753,-0.3754,-0.3743,-0.3743,-0.3743,-0.375,-0.3751,-0.3751,-0.3751,-0.3745,-0.3745,-0.3744,-0.3732,0,0,-0.3742,-0.3742,0,0,0,0,0,0,0,0,-0.3766,-0.3765,-0.3753,-0.3753,-0.3753,-0.3748,-0.375,-0.3739,-0.375,-0.3752,-0.3751,-0.3752,-0.3746,-0.3745,-0.3743,-0.3731,-0.3731,-0.3742,-0.3742,-0.3741,-0.3741,0,0,0,0,0,0,0,-0.3767,-0.3765,-0.3748,-0.3753,-0.3753,-0.3756,-0.3755,-0.3748,-0.3747,-0.3751,-0.3752,-0.3751,-0.3746,-0.3744,-0.3743,-0.3731,-0.3742,-0.3742,-0.3741,-0.3741,-0.3712,-0.3711,0,0,0,0,0,0,-0.3767,-0.3766,-0.3748,-0.3748,-0.3761,-0.3755,-0.3754,-0.375,-0.3747,-0.3747,-0.3751,-0.3751,-0.3744,-0.3744,-0.3743,-0.3729,-0.3741,-0.3741,-0.374,-0.3712,-0.3712,-0.3711,0,0,0,0,0,0,-0.3768,-0.3765,-0.3749,-0.3757,-0.3755,-0.3754,-0.3749,-0.3749,-0.3747,-0.3746,-0.3746,-0.3748,-0.3745,-0.3744,-0.3735,-0.3729,-0.3741,-0.374,-0.3713,-0.3712,-0.3711,-0.3701,0,0,0,0,0,0,-0.3768,-0.3766,-0.376,-0.3757,-0.3755,-0.374,-0.3749,-0.3749,-0.3745,-0.3746,-0.3743,-0.3743,-0.3745,-0.3736,-0.3734,-0.3728,-0.3739,-0.3713,-0.3712,-0.3712,-0.3702,-0.37,-0.3699,0,0,0,0,0,-0.3769,-0.3757,-0.3759,-0.3757,-0.3747,-0.3739,-0.3738,-0.374,-0.3745,-0.374,-0.374,-0.3743,-0.373,-0.3735,-0.3733,-0.3727,-0.3713,-0.3712,-0.3712,-0.3703,-0.3701,-0.3699,0,0,0,0,0,0,-0.3759,-0.3757,-0.3759,-0.3746,-0.3743,-0.374,-0.3734,-0.3737,-0.3733,-0.3734,-0.3737,-0.3736,-0.3727,-0.3726,-0.3732,-0.3716,-0.3723,-0.3721,-0.3717,-0.3715,-0.3713,-0.3713,-0.3739,0,0,0,0,0,-0.3756,-0.3748,-0.3747,-0.3735,-0.3734,-0.3734,-0.3731,-0.3732,-0.373,-0.3728,-0.3728,-0.3726,-0.3721,-0.3718,-0.3714,-0.3703,-0.3703,-0.3698,-0.3696,-0.3695,-0.3694,-0.369,-0.3688,-0.3708,-0.3708,-0.3708,0,0,-0.3748,-0.3745,-0.3741,-0.3733,-0.3731,-0.3725,-0.3733,-0.3726,-0.3722,-0.3728,-0.3719,-0.3719,-0.3717,-0.3707,-0.3703,-0.3706,-0.3689,-0.3694,-0.3693,-0.3692,-0.3689,-0.3687,-0.3685,-0.3708,-0.3708,-0.3708,0,0,-0.373,-0.3727,-0.3718,-0.3716,-0.3713,-0.3714,-0.3712,-0.371,-0.371,-0.3702,-0.3707,-0.3703,-0.3694,-0.3693,-0.3691,-0.3677,-0.3681,-0.3676,-0.3667,-0.3663,-0.3662,-0.366,-0.3656,-0.3654,-0.3674,-0.3674,-0.3674,0,-0.3721,-0.3711,-0.3713,-0.3706,-0.3703,-0.3709,-0.3701,-0.3699,-0.3695,-0.3693,-0.3697,-0.3689,-0.3687,-0.3679,-0.3675,-0.3673,-0.3672,-0.3675,-0.3661,-0.366,-0.3659,-0.3655,-0.3653,-0.3674,-0.3674,-0.3674,-0.3674,0,-0.37,-0.3694,-0.3687,-0.3683,-0.368,-0.3672,-0.3674,-0.3671,-0.3674,-0.3675,-0.3668,-0.3667,-0.3664,-0.3662,-0.3664,-0.3654,-0.3656,-0.3661,-0.3667,-0.3656,-0.3653,-0.3651,-0.3673,-0.3673,-0.3673,-0.3674,0,0,-0.3674,-0.3673,-0.3671,-0.367,-0.3668,-0.3664,-0.3658,-0.3654,-0.3652,-0.365,-0.3645,-0.364,-0.3644,-0.3643,-0.3645,-0.3642,-0.3632,-0.3647,-0.3647,-0.3645,-0.3622,-0.3619,-0.3617,-0.3635,-0.3635,-0.3634,-0.3623,0,-0.3657,-0.3645,-0.3649,-0.3637,-0.3632,-0.3639,-0.3634,-0.3633,-0.3635,-0.3631,-0.3633,-0.363,-0.3636,-0.3635,-0.3632,-0.3634,-0.3628,-0.3635,-0.3632,-0.3632,-0.3632,-0.3615,-0.3611,-0.36,-0.3621,-0.3621,-0.3621,0,-0.3635,-0.3633,-0.3621,-0.3622,-0.362,-0.3615,-0.3614,-0.361,-0.361,-0.3612,-0.3611,-0.3615,-0.3611,-0.3618,-0.3613,-0.3618,-0.3617,-0.3618,-0.3618,-0.3618,-0.3625,-0.3615,-0.3596,-0.3595,-0.3619,-0.3619,-0.3619,0,-0.3619,-0.3612,-0.3605,-0.3604,-0.3605,-0.3602,-0.3602,-0.3603,-0.3601,-0.36,-0.36,-0.3598,-0.3598,-0.3597,-0.3602,-0.3606,-0.3597,-0.3604,-0.3599,-0.3598,-0.3595,-0.3596,-0.3577,-0.3595,-0.3595,-0.3595,-0.3595,0,-0.3599,-0.3592,-0.3598,-0.3593,-0.3586,-0.3591,-0.3584,-0.3585,-0.3586,-0.3583,-0.3589,-0.3587,-0.3593,-0.3591,-0.3595,-0.3591,-0.359,-0.3592,-0.3593,-0.3591,-0.3591,-0.3591,-0.3592,-0.3595,-0.3595,-0.3595,-0.3595,0,-0.3579,-0.3582,-0.3575,-0.3577,-0.3578,-0.3573,-0.3575,-0.3572,-0.3575,-0.3571,-0.357,-0.3575,-0.3573,-0.3578,-0.3577,-0.358,-0.3574,-0.3576,-0.3574,-0.3574,-0.3569,-0.357,-0.355,-0.3548,-0.3567,-0.3567,-0.3566,0,-0.3566,-0.3561,-0.3563,-0.3562,-0.3562,-0.3559,-0.3558,-0.3563,-0.3562,-0.3563,-0.356,-0.3559,-0.3559,-0.3557,-0.356,-0.356,-0.3563,-0.3556,-0.3563,-0.3562,-0.3564,-0.3564,-0.3564,-0.3554,-0.3554,-0.3554,-0.3554,0,-0.3544,-0.3547,-0.3544,-0.3544,-0.3542,-0.3542,-0.3542,-0.354,-0.3546,-0.3545,-0.3544,-0.3543,-0.3543,-0.3543,-0.3544,-0.3546,-0.3551,-0.3552,-0.3551,-0.3549,-0.3548,-0.3549,-0.357,-0.3552,-0.3552,-0.3552,-0.3553,-0.3553,-0.3528,-0.3524,-0.3526,-0.3524,-0.3525,-0.3525,-0.3523,-0.3526,-0.3524,-0.3524,-0.3528,-0.3527,-0.3529,-0.3532,-0.3533,-0.3533,-0.3536,-0.3534,-0.3534,-0.3533,-0.3533,-0.3548,-0.3533,-0.3533,-0.3533,-0.3533,-0.3533,0,-0.3506,-0.3508,-0.3506,-0.3507,-0.3506,-0.3511,-0.3512,-0.3511,-0.351,-0.3512,-0.3511,-0.3511,-0.3511,-0.3516,-0.3517,-0.3516,-0.3519,-0.3516,-0.3516,-0.3517,-0.3529,-0.353,-0.3514,-0.3514,-0.3514,-0.3514,-0.3514,-0.3514,-0.3495,-0.349,-0.3493,-0.3489,-0.3491,-0.3489,-0.349,-0.3491,-0.3493,-0.3492,-0.3492,-0.3495,-0.3499,-0.35,-0.3501,-0.3503,-0.3503,-0.35,-0.3502,-0.3514,-0.3516,-0.3517,-0.3519,-0.35,-0.35,-0.349,-0.349,-0.349]},{"header":{"parameterUnit":"m.s-1","parameterCategory":1,"la1":30.2991,"la2":30.254,"lo1":-89.0895,"lo2":-89.0444,"dy":0.0017,"dx":0.0017,"nx":28,"ny":28,"refTime":"2024-05-12T03:00:00:Z","depth":0,"parameterNumber":3,"parameterNumberName":"V-component_of_WINDS"},"data":[0,0,0,0,0,0,0,0,0,0,0,0,0,0,0,0,0,0,0,0,0,0,0,0,0,0,0,0,0,0,0,0,0,0,0,0,0,0,0,0,0,0,0,0,0,0,0,0,0,0,0,0,0,0,0,0,0,0,7.8835,7.8837,0,7.9013,7.9015,7.9017,7.9005,7.9003,7.9,7.8998,7.9171,7.9177,7.9184,0,0,0,0,0,0,0,0,0,0,0,0,0,7.8477,7.8484,7.8835,7.8837,7.8839,7.9012,7.9015,7.9017,7.9006,7.9003,7.8999,7.8997,7.9168,7.9177,7.9185,0,0,0,0,0,0,0,0,0,0,0,0,0,7.8641,7.8486,7.8834,7.8855,7.8858,7.9012,7.9015,7.9018,7.9006,7.9003,7.8999,7.8995,7.9166,7.9176,7.9186,7.9329,0,0,7.9218,7.9223,0,0,0,0,0,0,0,0,7.8632,7.8654,7.8849,7.8853,7.8858,7.8983,7.8952,7.9122,7.9007,7.895,7.8998,7.8993,7.9111,7.9126,7.9167,7.9337,7.9344,7.9219,7.9226,7.923,7.9233,0,0,0,0,0,0,0,7.862,7.8646,7.8905,7.8852,7.8857,7.8852,7.8871,7.8984,7.9049,7.8955,7.8954,7.8976,7.9112,7.9157,7.9171,7.9347,7.9219,7.9228,7.9235,7.9239,7.9642,7.9646,0,0,0,0,0,0,7.8606,7.8637,7.8899,7.891,7.8733,7.8862,7.8883,7.8947,7.9048,7.906,7.8979,7.8975,7.9141,7.9159,7.9177,7.9351,7.923,7.924,7.9246,7.9637,7.9643,7.9648,0,0,0,0,0,0,7.8598,7.8629,7.8892,7.8774,7.8807,7.8872,7.8943,7.8952,7.8997,7.9067,7.9078,7.9013,7.9139,7.9162,7.9292,7.9356,7.9245,7.9254,7.9632,7.9639,7.9645,7.9698,0,0,0,0,0,0,7.8588,7.8627,7.8683,7.8775,7.8813,7.9006,7.8948,7.8958,7.9016,7.9012,7.9102,7.9113,7.9137,7.9276,7.9302,7.9369,7.9262,7.9627,7.9635,7.9643,7.9691,7.9706,7.9719,0,0,0,0,0,7.8575,7.8689,7.8686,7.8718,7.8886,7.901,7.9031,7.906,7.9022,7.9078,7.9123,7.911,7.9346,7.9289,7.9319,7.9389,7.9623,7.9633,7.9642,7.9685,7.9703,7.9718,0,0,0,0,0,0,7.8599,7.8701,7.8699,7.8847,7.892,7.9008,7.9079,7.9078,7.9161,7.9154,7.9183,7.9203,7.9333,7.9374,7.931,7.9533,7.9479,7.9495,7.9501,7.9519,7.9532,7.9519,7.9271,0,0,0,0,0,7.8622,7.8717,7.88,7.8922,7.896,7.9014,7.9068,7.9085,7.916,7.919,7.9245,7.9316,7.9407,7.9465,7.9552,7.9698,7.9716,7.9761,7.9774,7.9785,7.9798,7.9878,7.9899,7.968,7.968,7.968,0,0,7.8669,7.8737,7.8795,7.8929,7.8988,7.9083,7.9039,7.9142,7.9212,7.9205,7.9331,7.9374,7.9456,7.9594,7.9658,7.9632,7.9863,7.9798,7.9806,7.9813,7.9891,7.9911,7.993,7.9687,7.9686,7.9684,0,0,7.8804,7.8866,7.8975,7.9036,7.9126,7.9162,7.9188,7.9277,7.9306,7.9434,7.9431,7.9513,7.9668,7.9727,7.9777,7.9936,7.9927,7.9963,8.0035,8.0112,8.0129,8.0145,8.0201,8.0221,7.9976,7.9977,7.9977,0,7.8851,7.8998,7.903,7.9135,7.9193,7.9195,7.9303,7.936,7.9473,7.9512,7.9483,7.9678,7.9733,7.9885,7.9925,7.9966,7.9995,7.9952,8.0125,8.0141,8.0156,8.0209,8.023,7.998,7.998,7.998,7.9979,0,7.905,7.9151,7.9228,7.9341,7.9408,7.9514,7.956,7.9624,7.9635,7.9672,7.9802,7.9869,7.9969,8.0007,8.0016,8.0161,8.0142,8.0119,8.0065,8.018,8.0231,8.0252,7.9986,7.9984,7.9983,7.9982,0,0,7.9203,7.9335,7.9362,7.9414,7.9515,7.9593,7.9698,7.98,7.9854,7.9932,8.002,8.0152,8.0132,8.0189,8.0205,8.0274,8.0395,8.0242,8.0244,8.0267,8.0557,8.0573,8.0597,8.0391,8.0395,8.0398,8.055,0,7.9348,7.9539,7.9571,7.9737,7.9831,7.9834,7.9926,7.9997,8.0035,8.0118,8.0159,8.0252,8.0219,8.0253,8.0321,8.0366,8.0453,8.0356,8.047,8.0474,8.0449,8.0624,8.0641,8.0781,8.057,8.0574,8.0576,0,7.9542,7.9629,7.9805,7.9895,7.9935,8.0018,8.0114,8.0194,8.0274,8.0297,8.0362,8.0371,8.0478,8.0421,8.0569,8.0502,8.055,8.058,8.0586,8.0596,8.0531,8.0638,8.0826,8.0847,8.0608,8.0605,8.0603,0,7.9635,7.9796,7.9923,7.9967,8.0075,8.0133,8.018,8.0256,8.0315,8.0399,8.0437,8.053,8.0581,8.0652,8.0686,8.0641,8.0831,8.0776,8.0851,8.085,8.0889,8.0886,8.1087,8.0923,8.0923,8.0922,8.0922,0,7.9793,7.99,7.9967,8.0044,8.0164,8.02,8.0317,8.0362,8.043,8.0515,8.0522,8.0601,8.0641,8.0725,8.0752,8.0869,8.0892,8.0912,8.0918,8.0911,8.0908,8.0942,8.0933,8.0928,8.0927,8.0925,8.0925,0,7.9917,7.9966,8.0104,8.0196,8.0222,8.0306,8.0383,8.0457,8.0496,8.0603,8.063,8.069,8.079,8.0831,8.0952,8.097,8.1105,8.1103,8.1079,8.108,8.1152,8.1145,8.1381,8.1414,8.1229,8.1231,8.1232,0,8.0014,8.0097,8.0199,8.0258,8.0308,8.0402,8.0464,8.0502,8.0566,8.0664,8.0726,8.0826,8.0909,8.1067,8.112,8.1212,8.1212,8.1289,8.1226,8.1217,8.1212,8.1207,8.1215,8.13,8.1302,8.1303,8.1304,0,8.018,8.0201,8.0291,8.0391,8.0465,8.0544,8.0621,8.0668,8.0718,8.0788,8.0892,8.0956,8.1082,8.118,8.1277,8.1322,8.1321,8.1324,8.1346,8.134,8.1322,8.1332,8.1109,8.1318,8.1317,8.1316,8.1315,8.1314,8.0293,8.0367,8.0452,8.0552,8.0615,8.0687,8.0762,8.0812,8.09,8.1007,8.1024,8.1134,8.1212,8.1341,8.1391,8.1476,8.1456,8.1488,8.1496,8.1503,8.1508,8.131,8.1494,8.1494,8.1493,8.1493,8.1493,0,8.0459,8.0514,8.0607,8.0716,8.0795,8.0791,8.0876,8.0941,8.104,8.1114,8.1196,8.1314,8.1411,8.1472,8.1569,8.1626,8.1628,8.165,8.1645,8.1655,8.152,8.1492,8.1647,8.1646,8.1646,8.1646,8.1646,8.1646,8.0555,8.0681,8.0712,8.0868,8.0922,8.1033,8.1082,8.1148,8.1207,8.1341,8.1422,8.1463,8.1532,8.1634,8.1722,8.1737,8.1772,8.1795,8.1809,8.1681,8.1665,8.165,8.1622,8.1802,8.1803,8.1936,8.1938,8.1939]}]]